Date String (YYYY-MM-DD hh:mm:ss) UTC,Instrument flags,absolute air pressure of the measurement (hPa),sample flow rate (lpm),inlet stack bypass flow (lpm),air temperature of the measurement (°C),ambient temperature measured by the external sensor (°C),aerosol sample conditioner tube jacket temperature (°C),OPC LED temperature (°C),internal box temperature (°C),relative humidity of the measurement (%),span deviation,mass concentration of particles derived from Lorenz-Mie calculation of OPC scattering (μg/m³),mass concentration of particles derived from Lorenz-Mie calculation of OPC scattering (μg/m³),mass concentration of particles derived from Lorenz-Mie calculation of OPC scattering (μg/m³)
DateTimeUTC,F1_M11,P_M11,Q1_M11,Q2_M11,T1_M11,T2_M11,T3_M11,T4_M11,T5_M11,U1_M11,ZSPAN_M11,X0_M11,X2_M11,X1_M11
2023-09-16 03:00:00,SystemResetWarning,0836.9,5.00,000.00,028.6,027.2,000.0,037.1,030.2,24.0,0000.0,0008.49,0004.45,0003.90
2023-09-16 03:01:00,SystemResetWarning,0836.9,5.00,000.00,028.6,027.2,000.0,037.1,030.2,23.9,0000.0,0008.22,0004.43,0003.88
2023-09-16 03:02:00,SystemResetWarning,0836.9,5.00,000.00,028.6,027.2,000.0,037.1,030.2,23.9,0000.0,0008.22,0004.43,0003.87
2023-09-16 03:03:00,SystemResetWarning,0836.9,5.00,000.00,028.6,027.2,000.0,037.1,030.2,23.9,0000.0,0008.21,0004.41,0003.85
2023-09-16 03:04:00,SystemResetWarning,0836.9,5.00,000.00,028.6,027.2,000.0,037.1,030.2,24.0,0000.0,0007.99,0004.36,0003.83
2023-09-16 03:05:00,SystemResetWarning,0836.9,5.00,000.00,028.6,027.2,000.0,037.1,030.2,23.9,0000.0,0007.35,0004.33,0003.83
2023-09-16 03:06:00,SystemResetWarning,0836.9,5.00,000.00,028.6,027.2,000.0,037.1,030.2,23.7,0000.0,0007.34,0004.33,0003.83
2023-09-16 03:07:00,SystemResetWarning,0836.9,4.99,000.00,028.6,027.2,000.0,037.1,030.2,23.8,0000.0,0007.24,0004.32,0003.83
2023-09-16 03:08:00,SystemResetWarning,0836.9,5.00,000.00,028.6,027.2,000.0,037.1,030.2,23.7,0000.0,0007.63,0004.31,0003.83
2023-09-16 03:09:00,SystemResetWarning,0836.9,4.99,000.00,028.6,027.2,000.0,037.1,030.2,23.8,0000.0,0007.70,0004.30,0003.83
2023-09-16 03:10:00,SystemResetWarning,0836.9,5.01,000.00,028.6,027.2,000.0,037.1,030.2,23.7,0000.0,0007.69,0004.30,0003.83
2023-09-16 03:11:00,SystemResetWarning,0837.0,5.01,000.00,028.6,027.2,000.0,037.1,030.2,23.7,0000.0,0007.72,0004.30,0003.84
2023-09-16 03:12:00,SystemResetWarning,0837.0,4.99,000.00,028.6,027.2,000.0,037.1,030.2,23.6,0000.0,0008.08,0004.30,0003.84
2023-09-16 03:13:00,SystemResetWarning,0837.0,4.99,000.00,028.6,027.2,000.0,037.1,030.2,23.6,0000.0,0008.19,0004.29,0003.83
2023-09-16 03:14:00,SystemResetWarning,0837.0,4.99,000.00,028.6,027.2,000.0,037.1,030.2,23.6,0000.0,0008.17,0004.29,0003.84
2023-09-16 03:15:00,SystemResetWarning,0837.0,5.00,000.00,028.6,027.2,000.0,037.1,030.2,23.5,0000.0,0008.28,0004.32,0003.85
2023-09-16 03:16:00,SystemResetWarning,0837.0,5.00,000.00,028.6,027.2,000.0,037.1,030.2,23.4,0000.0,0008.53,0004.35,0003.85
2023-09-16 03:17:00,SystemResetWarning,0837.0,5.00,000.00,028.6,027.2,000.0,037.1,030.2,23.2,0000.0,0009.05,0004.33,0003.85
2023-09-16 03:18:00,SystemResetWarning,0837.0,5.00,000.00,028.6,027.2,000.0,037.1,030.2,23.3,0000.0,0009.19,0004.35,0003.85
2023-09-16 03:19:00,SystemResetWarning,0837.0,5.00,000.00,028.6,027.2,000.0,037.1,030.2,23.3,0000.0,0008.95,0004.38,0003.85
2023-09-16 03:20:00,SystemResetWarning,0837.0,5.00,000.00,028.6,027.2,000.0,037.1,030.2,23.2,0000.0,0008.83,0004.37,0003.85
2023-09-16 03:21:00,SystemResetWarning,0837.0,5.00,000.00,028.6,027.2,000.0,037.1,030.2,23.2,0000.0,0008.90,0004.36,0003.85
2023-09-16 03:22:00,SystemResetWarning,0836.9,5.00,000.00,028.6,027.2,000.0,037.1,030.2,23.1,0000.0,0009.03,0004.38,0003.85
2023-09-16 03:23:00,SystemResetWarning,0836.9,5.00,000.00,028.6,027.2,000.0,037.1,030.1,23.1,0000.0,0008.71,0004.39,0003.85
2023-09-16 03:24:00,SystemResetWarning,0836.9,5.00,000.00,028.6,027.2,000.0,037.1,030.1,23.1,0000.0,0008.56,0004.41,0003.87
2023-09-16 03:25:00,SystemResetWarning,0836.9,5.00,000.00,028.6,027.2,000.0,037.1,030.2,23.1,0000.0,0008.67,0004.43,0003.86
2023-09-16 03:26:00,SystemResetWarning,0836.9,4.99,000.00,028.6,027.2,000.0,037.1,030.2,23.2,0000.0,0008.70,0004.42,0003.85
2023-09-16 03:27:00,SystemResetWarning,0836.9,5.00,000.00,028.6,027.2,000.0,037.1,030.2,23.0,0000.0,0008.62,0004.43,0003.84
2023-09-16 03:28:00,SystemResetWarning,0836.9,5.00,000.00,028.6,027.2,000.0,037.1,030.2,23.1,0000.0,0008.17,0004.44,0003.84
2023-09-16 03:29:00,SystemResetWarning,0836.9,5.00,000.00,028.6,027.2,000.0,037.1,030.2,23.0,0000.0,0008.14,0004.44,0003.83
2023-09-16 03:30:00,SystemResetWarning,0836.9,5.00,000.00,028.6,027.2,000.0,037.1,030.2,22.9,0000.0,0008.02,0004.42,0003.82
2023-09-16 03:31:00,SystemResetWarning,0837.0,5.00,000.00,028.6,027.2,000.0,037.1,030.2,22.9,0000.0,0008.04,0004.41,0003.82
2023-09-16 03:32:00,SystemResetWarning,0836.9,5.00,000.00,028.6,027.2,000.0,037.1,030.2,22.9,0000.0,0008.00,0004.41,0003.82
2023-09-16 03:33:00,SystemResetWarning,0836.9,5.00,000.00,028.6,027.2,000.0,037.1,030.2,22.8,0000.0,0007.94,0004.41,0003.83
2023-09-16 03:34:00,SystemResetWarning,0836.9,5.00,000.00,028.6,027.2,000.0,037.1,030.2,22.9,0000.0,0008.07,0004.44,0003.82
2023-09-16 03:35:00,SystemResetWarning,0836.9,5.00,000.00,028.6,027.2,000.0,037.1,030.1,22.9,0000.0,0008.29,0004.43,0003.80
2023-09-16 03:36:00,SystemResetWarning,0836.8,5.01,000.00,028.6,027.2,000.0,037.1,030.1,22.8,0000.0,0008.42,0004.41,0003.80
2023-09-16 03:37:00,SystemResetWarning,0836.8,5.01,000.00,028.6,027.1,000.0,037.1,030.1,22.7,0000.0,0008.34,0004.39,0003.79
2023-09-16 03:38:00,SystemResetWarning,0836.8,5.00,000.00,028.6,027.1,000.0,037.1,030.1,22.8,0000.0,0008.20,0004.34,0003.79
2023-09-16 03:39:00,SystemResetWarning,0836.8,5.00,000.00,028.6,027.1,000.0,037.1,030.2,22.8,0000.0,0008.12,0004.33,0003.78
2023-09-16 03:40:00,SystemResetWarning,0836.9,5.00,000.00,028.6,027.1,000.0,037.1,030.2,22.6,0000.0,0007.93,0004.31,0003.78
2023-09-16 03:41:00,SystemResetWarning,0836.8,5.00,000.00,028.6,027.1,000.0,037.1,030.1,22.6,0000.0,0007.85,0004.30,0003.78
2023-09-16 03:42:00,SystemResetWarning,0836.8,5.00,000.00,028.6,027.1,000.0,037.1,030.2,22.6,0000.0,0007.86,0004.29,0003.77
2023-09-16 03:43:00,SystemResetWarning,0836.7,5.00,000.00,028.6,027.1,000.0,037.1,030.2,22.4,0000.0,0007.84,0004.27,0003.76
2023-09-16 03:44:00,SystemResetWarning,0836.8,5.00,000.00,028.6,027.1,000.0,037.1,030.1,22.4,0000.0,0007.69,0004.25,0003.75
2023-09-16 03:45:00,SystemResetWarning,0836.8,5.00,000.00,028.6,027.1,000.0,037.1,030.1,22.4,0000.0,0007.57,0004.23,0003.75
2023-09-16 03:46:00,SystemResetWarning,0836.8,5.00,000.00,028.6,027.1,000.0,037.1,030.1,22.5,0000.0,0007.51,0004.20,0003.75
2023-09-16 03:47:00,SystemResetWarning,0836.8,5.01,000.00,028.6,027.1,000.0,037.1,030.1,22.3,0000.0,0007.20,0004.19,0003.75
2023-09-16 03:48:00,SystemResetWarning,0836.8,5.00,000.00,028.6,027.1,000.0,037.1,030.1,22.3,0000.0,0007.11,0004.18,0003.75
2023-09-16 03:49:00,SystemResetWarning,0836.8,5.01,000.00,028.6,027.1,000.0,037.1,030.1,22.2,0000.0,0007.14,0004.17,0003.75
2023-09-16 03:50:00,SystemResetWarning,0836.8,5.00,000.00,028.6,027.1,000.0,037.1,030.1,22.1,0000.0,0007.06,0004.16,0003.75
2023-09-16 03:51:00,SystemResetWarning,0836.8,4.99,000.00,028.6,027.1,000.0,037.1,030.1,22.2,0000.0,0006.97,0004.15,0003.75
2023-09-16 03:52:00,SystemResetWarning,0836.8,5.00,000.00,028.6,027.1,000.0,037.1,030.1,22.0,0000.0,0006.85,0004.12,0003.74
2023-09-16 03:53:00,SystemResetWarning,0836.8,5.00,000.00,028.6,027.1,000.0,037.1,030.1,22.1,0000.0,0007.36,0004.10,0003.73
2023-09-16 03:54:00,SystemResetWarning,0836.8,5.00,000.00,028.6,027.1,000.0,037.1,030.1,22.0,0000.0,0007.58,0004.10,0003.73
2023-09-16 03:55:00,SystemResetWarning,0836.8,5.00,000.00,028.6,027.1,000.0,037.1,030.1,21.9,0000.0,0007.61,0004.09,0003.72
2023-09-16 03:56:00,SystemResetWarning,0836.8,5.00,000.00,028.6,027.1,000.0,037.1,030.1,21.9,0000.0,0007.81,0004.09,0003.72
2023-09-16 03:57:00,SystemResetWarning,0836.8,5.00,000.00,028.6,027.1,000.0,037.1,030.1,21.9,0000.0,0007.83,0004.10,0003.71
2023-09-16 03:58:00,SystemResetWarning,0836.8,5.00,000.00,028.6,027.1,000.0,037.1,030.1,21.9,0000.0,0008.00,0004.10,0003.71
2023-09-16 03:59:00,SystemResetWarning,0836.8,5.00,000.00,028.6,027.1,000.0,037.1,030.1,21.8,0000.0,0007.91,0004.07,0003.70
